EW5758 Weather Reports


Display with metric or nautical units.
time (UTC)temp
F
wind
direction
speed
MPH
gust
MPH
rain 1hr
in
rain 24hr
in
rain mn
in
humidity
%
barometer
mb
20260507134106 66 235 3.0 0.0 0.00 0.00 0.01 57 1013.4
20260507133529 66 297 4.0 0.0 0.00 0.00 0.01 56 1013.4
20260507133049 65 324 5.0 0.0 0.00 0.00 0.01 56 1013.5
20260507133030 66 301 5.0 0.0 0.00 0.00 0.01 58 1013.5
20260507132541 65 259 4.0 0.0 0.00 0.00 0.01 63 1013.5
20260507132015 65 271 4.0 0.0 0.00 0.00 0.01 62 1013.6
20260507131537 65 303 4.0 0.0 0.00 0.00 0.01 63 1013.6
20260507131521 64 315 4.0 0.0 0.00 0.00 0.01 64 1013.6
20260507131035 64 186 3.0 0.0 0.00 0.00 0.01 65 1013.6
20260507130513 63 242 2.0 0.0 0.00 0.00 0.01 67 1013.7
20260507130021 62 74 2.0 0.0 0.00 0.00 0.01 64 1013.7
20260507130008 62 71 2.0 0.0 0.00 0.00 0.01 64 1013.7
20260507125525 62 325 4.0 0.0 0.00 0.00 0.01 66 1013.6
20260507125019 61 309 4.0 0.0 0.00 0.00 0.01 67 1013.7
20260507124619 61 298 3.0 0.0 0.00 0.00 0.01 67 1013.8
20260507124550 61 282 2.0 0.0 0.00 0.00 0.01 67 1013.7
20260507124017 61 283 2.0 0.0 0.00 0.00 0.01 68 1013.8
20260507123518 60 285 3.0 0.0 0.00 0.00 0.01 68 1013.8
20260507123053 60 242 4.0 0.0 0.00 0.00 0.01 65 1013.9
20260507123028 60 298 5.0 0.0 0.00 0.00 0.01 65 1013.8
20260507122531 61 228 5.0 0.0 0.00 0.00 0.01 66 1013.8
20260507122017 61 257 6.0 0.0 0.00 0.00 0.01 65 1013.8
20260507121553 61 249 7.0 0.0 0.00 0.00 0.01 65 1013.9
20260507121518 61 259 7.0 0.0 0.00 0.00 0.01 65 1013.8
20260507121018 62 303 7.0 0.0 0.00 0.00 0.01 65 1013.8
20260507120519 62 288 6.0 0.0 0.00 0.00 0.01 63 1013.8
20260507120043 63 278 4.0 0.0 0.00 0.00 0.01 64 1013.8
20260507115528 62 244 4.0 0.0 0.00 0.00 0.01 66 1013.8
20260507115028 62 278 5.0 0.0 0.00 0.00 0.01 64 1013.9
20260507114616 62 299 4.0 0.0 0.00 0.00 0.01 64 1013.9
20260507114519 62 293 4.0 0.0 0.00 0.00 0.01 65 1013.8
20260507114023 62 332 4.0 0.0 0.00 0.00 0.01 66 1013.9
20260507113551 61 217 5.0 0.0 0.00 0.00 0.01 68 1013.9
20260507113103 60 254 6.0 0.0 0.00 0.00 0.01 71 1013.9
20260507113038 61 244 6.0 0.0 0.00 0.00 0.01 70 1013.9
20260507112526 61 298 6.0 0.0 0.00 0.00 0.01 68 1013.9
20260507112018 61 268 5.0 0.0 0.00 0.00 0.01 71 1013.9
20260507111603 60 268 5.0 0.0 0.00 0.00 0.01 73 1014.1
20260507111523 60 253 5.0 0.0 0.00 0.00 0.01 73 1014.0
20260507111014 59 263 4.0 0.0 0.00 0.00 0.01 75 1014.0
20260507110525 58 248 4.0 0.0 0.00 0.00 0.01 72 1014.0
20260507110113 58 265 5.0 0.0 0.00 0.00 0.01 70 1014.0
20260507110034 59 295 6.0 0.0 0.00 0.00 0.01 70 1014.0
20260507105521 59 278 6.0 0.0 0.00 0.00 0.01 69 1014.0
20260507105015 61 297 6.0 0.0 0.00 0.00 0.01 67 1014.0
20260507104617 61 212 5.0 0.0 0.00 0.00 0.01 65 1014.0
20260507104547 61 265 5.0 0.0 0.00 0.00 0.01 65 1014.0
20260507104018 62 225 2.0 0.0 0.00 0.00 0.01 58 1013.9
20260507103528 62 217 2.0 0.0 0.00 0.00 0.01 60 1014.0
20260507103015 62 235 3.0 0.0 0.00 0.00 0.01 62 1014.0
20260507103000 61 235 3.0 0.0 0.00 0.00 0.01 62 1014.1
20260507102528 62 196 3.0 0.0 0.00 0.00 0.01 61 1014.0
20260507102037 62 232 4.0 0.0 0.00 0.00 0.01 66 1014.0
20260507101549 61 320 3.0 0.0 0.00 0.00 0.01 65 1014.1
20260507101511 60 318 3.0 0.0 0.00 0.00 0.01 66 1014.1
20260507101035 60 297 2.0 0.0 0.00 0.00 0.01 65 1014.1
20260507100518 60 245 1.0 0.0 0.00 0.00 0.01 70 1014.2
20260507100104 59 245 1.0 0.0 0.00 0.00 0.01 68 1014.2
20260507100033 59 245 1.0 0.0 0.00 0.00 0.01 69 1014.3
20260507095515 59 231 3.0 0.0 0.00 0.00 0.01 66 1014.2
20260507095043 59 227 2.0 0.0 0.00 0.00 0.01 65 1014.2
20260507094520 60 202 1.0 0.0 0.00 0.00 0.01 68 1014.2
20260507094030 60 221 1.0 0.0 0.00 0.00 0.01 66 1014.2
20260507093533 60 263 1.0 0.0 0.00 0.00 0.01 67 1014.3
20260507093116 59 189 2.0 0.0 0.00 0.00 0.01 69 1014.3
20260507093027 60 284 2.0 0.0 0.00 0.00 0.01 68 1014.2
20260507092519 59 290 2.0 0.0 0.00 0.00 0.01 69 1014.2
20260507092023 59 229 2.0 0.0 0.00 0.00 0.01 72 1014.3
20260507091549 58 301 2.0 0.0 0.00 0.00 0.01 72 1014.3
20260507091516 58 301 2.0 0.0 0.00 0.00 0.01 72 1014.3
20260507091045 58 222 1.0 0.0 0.00 0.00 0.01 71 1014.2
20260507090537 58 111 1.0 0.0 0.00 0.00 0.01 72 1014.3
20260507090047 57 78 2.0 0.0 0.00 0.00 0.01 71 1014.4
20260507090029 58 78 3.0 0.0 0.00 0.00 0.01 71 1014.3
20260507085524 58 198 3.0 0.0 0.00 0.00 0.01 74 1014.4
20260507074614 51 134 3.0 0.0 0.00 0.00 0.01 85 1014.4
20260507074525 51 202 4.0 0.0 0.00 0.00 0.01 85 1014.3
20260507074022 51 124 4.0 0.0 0.00 0.00 0.01 86 1014.3
20260507073058 50 157 3.0 0.0 0.00 0.00 0.01 88 1014.3
20260507073024 50 160 3.0 0.0 0.00 0.00 0.01 88 1014.3
20260507072532 50 184 3.0 0.0 0.00 0.00 0.01 90 1014.3
20260507072016 50 157 2.0 0.0 0.00 0.00 0.01 91 1014.3
20260507071552 49 145 3.0 0.0 0.00 0.00 0.01 91 1014.4
20260507071514 50 128 3.0 0.0 0.00 0.00 0.01 91 1014.3
20260507071027 49 149 2.0 0.0 0.00 0.00 0.01 92 1014.2
20260507070526 49 159 2.0 0.0 0.00 0.00 0.01 92 1014.2
20260507070054 49 150 2.0 0.0 0.00 0.00 0.01 92 1014.3
20260507070022 49 155 2.0 0.0 0.00 0.00 0.01 92 1014.2
20260507065526 49 194 2.0 0.0 0.00 0.00 0.01 93 1014.3
20260507065027 49 174 2.0 0.0 0.00 0.00 0.01 93 1014.3
20260507064536 48 159 2.0 0.0 0.00 0.00 0.01 93 1014.2
20260507064517 48 159 3.0 0.0 0.00 0.00 0.01 93 1014.3
20260507064021 48 151 3.0 0.0 0.00 0.00 0.01 93 1014.2
20260507063521 48 171 2.0 0.0 0.00 0.00 0.01 93 1014.2
20260507063114 48 188 2.0 0.0 0.00 0.00 0.01 93 1014.2
20260507063031 48 197 2.0 0.0 0.00 0.00 0.01 93 1014.2
20260507062525 48 195 1.0 0.0 0.00 0.00 0.01 93 1014.1
20260507062022 48 145 1.0 0.0 0.00 0.00 0.01 93 1014.0
20260507061552 47 132 1.0 0.0 0.00 0.00 0.01 93 1014.0
20260507061521 48 132 1.0 0.0 0.00 0.00 0.01 93 1013.9
20260507061015 48 120 1.0 0.0 0.00 0.00 0.01 93 1013.8
20260507060536 48 120 0.0 0.0 0.00 0.00 0.01 93 1013.8
20260507060030 47 120 0.0 0.0 0.00 0.00 0.01 93 1013.8
20260507060011 47 120 0.0 0.0 0.00 0.00 0.01 93 1013.8
20260507055531 47 120 0.0 0.0 0.00 0.00 0.01 93 1013.8
20260507055038 47 120 1.0 0.0 0.00 0.00 0.01 93 1013.8
20260507054547 47 120 1.0 0.0 0.00 0.00 0.01 92 1013.8
20260507054511 47 120 1.0 0.0 0.00 0.00 0.01 92 1013.8
20260507054037 47 120 1.0 0.0 0.00 0.00 0.01 92 1013.7
20260507053543 47 120 2.0 0.0 0.00 0.00 0.01 92 1013.7
20260507053042 47 145 2.0 0.0 0.00 0.00 0.01 92 1013.6
20260506221538 47 149 6.0 0.0 0.00 0.00 0.00 88 1012.1
20260506221507 46 117 6.0 0.0 0.00 0.00 0.00 88 1012.1
20260506221040 47 126 7.0 0.0 0.00 0.00 0.00 88 1012.2
20260506220523 47 110 7.0 0.0 0.00 0.00 0.00 88 1012.2
20260506220110 46 132 7.0 0.0 0.00 0.00 0.00 87 1012.2
20260506220030 47 112 7.0 0.0 0.00 0.00 0.31 87 1012.2
20260506215520 47 125 7.0 0.0 0.00 0.00 0.31 87 1012.1
20260506215022 47 124 6.0 0.0 0.00 0.00 0.31 88 1012.0
20260506214618 47 127 6.0 0.0 0.00 0.00 0.31 88 1012.0
20260506214514 47 111 6.0 0.0 0.00 0.00 0.31 88 1012.0
20260506213518 47 96 5.0 0.0 0.00 0.00 0.31 87 1012.0
20260506213046 46 123 5.0 0.0 0.00 0.00 0.31 87 1012.1
20260506213025 47 114 5.0 0.0 0.00 0.00 0.31 87 1012.0
20260506212620 47 112 5.0 0.0 0.00 0.00 0.31 87 1012.0